GFSWCAN_2pvu_pres_021.txt.gz
Presure
211 216 206 206 194 188 200 199 219 204 218 202 207 213 202 206 202 195 192 191 190 199 190 193 195 198 198 196 194 193 192 195 199 199 206 192 183 187 188 189 180 194 202 207 209 183 172 174 191 183 195 185 181 192
223 219 209 198 198 202 200 197 197 208 214 213 210 206 213 220 198 202 203 198 199 206 195 200 194 196 190 190 192 199 199 197 200 203 212 217 195 181 193 189 188 201 198 216 182 186 167 186 187 182 183 189 100 191
224 217 207 205 208 190 199 192 204 184 201 206 195 215 215 200 181 193 195 195 195 200 208 202 204 199 197 192 196 194 199 204 211 203 212 218 192 189 189 188 192 195 208 188 180 179 179 176 187 172 197 201 198 202
223 223 208 204 207 187 196 195 180 195 197 198 194 206 204 213 189 202 189 195 201 201 204 196 206 199 203 208 200 202 209 216 225 220 197 222 188 188 189 189 188 199 174 169 175 188 185 189 191 191 202 195 193 203
234 220 217 213 202 208 193 194 200 200 193 194 194 204 186 190 199 199 209 211 196 205 206 201 201 196 206 211 210 205 210 216 218 225 219 200 191 198 189 198 194 195 177 191 185 188 193 189 194 202 200 196 199 196
241 228 227 215 215 201 205 192 193 194 190 194 193 187 188 197 204 197 185 193 188 190 196 213 193 209 211 202 192 193 193 198 196 197 200 201 196 190 206 203 166 196 188 98 188 194 203 200 195 199 201 206 208 212
245 235 231 231 213 212 202 205 195 194 195 184 198 193 195 191 193 195 187 185 193 238 248 202 191 217 206 224 226 227 208 178 212 196 194 202 206 191 191 192 184 115 179 174 195 193 198 191 193 195 202 210 212 212
239 239 240 228 229 215 198 206 203 195 202 195 192 189 184 197 190 193 192 184 190 191 193 191 182 199 202 192 200 185 197 201 202 196 184 190 189 189 186 193 192 187 196 196 200 200 197 195 201 205 206 211 211 217
248 233 235 238 231 223 212 202 202 204 206 204 201 179 190 191 193 190 191 185 193 192 192 194 189 184 182 188 189 182 196 199 200 198 191 194 196 197 195 189 185 189 190 196 202 199 199 209 208 204 210 214 219 225
240 238 231 238 249 236 228 216 211 201 198 204 203 202 201 194 185 191 193 196 192 198 190 189 195 179 172 186 154 197 195 188 191 186 196 193 190 190 173 199 200 207 208 195 200 205 210 200 209 212 224 235 233 235
239 230 237 237 245 251 229 226 226 212 204 200 200 202 202 199 200 204 194 207 203 192 189 189 186 189 198 201 198 198 199 202 203 203 199 188 178 136 201 207 201 192 194 204 202 202 207 206 213 224 213 229 235 229
242 214 218 230 234 236 219 216 217 221 217 212 209 207 199 201 210 209 209 206 207 207 205 190 196 196 200 199 197 197 198 201 203 206 209 209 205 206 201 190 193 202 210 206 211 218 212 219 220 233 241 244 231 226
248 250 228 210 246 238 242 240 233 228 225 224 218 221 216 207 216 220 221 214 206 204 203 200 198 195 199 208 201 202 195 197 200 205 214 211 202 209 200 201 213 214 204 210 219 219 218 215 234 236 245 231 239 226
247 229 248 241 249 243 228 227 256 243 242 228 222 226 221 223 233 231 225 212 216 226 221 207 207 208 202 206 209 211 207 205 204 203 202 208 210 213 218 211 218 220 218 220 219 217 226 234 252 247 248 231 257 259
285 278 233 245 224 218 243 221 236 228 224 226 237 250 237 210 210 207 210 217 219 222 213 218 221 221 219 219 220 210 213 222 221 216 212 215 210 213 224 224 230 223 199 234 234 245 254 251 250 236 228 277 284 276
255 257 272 219 259 238 234 260 241 238 239 230 253 231 237 241 238 232 228 231 233 237 217 216 215 213 217 225 218 221 227 230 232 238 235 225 231 233 227 230 156 240 251 256 244 263 254 237 258 227 276 273 272 278
268 271 260 259 266 267 227 276 240 275 218 261 228 235 240 233 231 229 237 237 240 238 234 233 242 236 235 240 238 243 227 226 232 242 229 235 259 262 261 243 250 230 244 268 267 256 250 269 281 294 276 273 283 290
332 308 288 281 262 254 259 261 244 272 222 265 261 228 231 232 235 242 251 239 245 247 242 251 238 236 238 250 254 256 258 249 258 260 235 241 264 125 246 244 255 238 242 164 256 259 266 276 275 278 282 292 308 366
327 330 331 321 307 296 273 270 262 266 277 222 254 237 246 228 243 241 229 226 239 238 233 233 237 259 246 238 237 233 240 240 245 245 235 152 241 266 262 265 256 237 263 262 264 265 276 285 288 291 318 353 374 410
343 319 321 333 328 323 332 312 317 311 266 265 268 220 267 251 232 217 238 202 234 231 223 225 232 245 252 245 233 248 250 256 266 260 226 271 263 257 259 258 257 273 274 266 276 281 289 299 332 328 380 377 421 407
362 353 355 318 325 324 331 337 347 310 310 317 328 330 306 273 269 268 271 274 270 266 264 263 256 258 258 258 261 259 255 258 266 271 136 254 259 266 264 267 284 290 283 285 290 294 345 377 383 410 409 405 394 384
367 361 348 349 265 351 323 318 319 331 345 345 355 308 308 320 318 306 304 303 294 288 276 282 288 287 289 298 149 261 303 304 305 283 277 275 273 273 295 299 288 301 300 330 337 395 414 410 408 401 408 396 414 417
353 350 353 349 351 349 346 344 325 309 312 322 338 342 348 346 315 303 307 303 295 291 289 288 289 289 281 276 279 281 288 200 287 288 287 287 282 300 309 317 361 409 420 413 403 401 405 408 430 420 414 403 409 403
336 335 339 341 347 346 344 342 341 320 314 304 317 322 328 336 341 346 343 349 359 348 303 307 312 311 310 312 312 139 310 312 318 325 399 401 420 417 412 408 408 405 402 397 397 390 384 378 406 394 415 412 399 385
336 336 343 348 363 365 337 342 347 360 364 343 339 341 350 336 324 328 327 288 198 351 354 124 130 374 373 375 370 375 388 403 406 410 409 413 415 414 398 390 389 388 387 384 381 390 371 380 395 421 412 395 376 364
329 336 337 336 344 326 343 346 345 347 353 346 342 346 349 363 368 305 360 365 362 358 368 369 376 403 403 404 406 403 401 403 405 399 392 395 380 370 367 364 368 397 401 392 387 389 384 380 414 408 386 366 356 347
341 334 335 333 326 333 344 339 343 339 344 351 355 341 340 346 311 258 358 374 382 393 392 391 393 395 397 397 397 398 391 386 387 382 367 354 347 349 349 351 357 499 460 427 399 390 379 382 403 372 361 355 344 335
328 328 345 334 330 339 323 326 336 330 330 338 343 347 340 359 348 363 383 385 380 375 374 382 386 382 380 375 373 374 376 360 353 346 339 333 334 333 334 328 341 426 470 429 407 394 379 378 383 348 349 345 338 333
348 348 350 347 345 334 331 335 340 337 345 347 345 346 377 382 376 370 372 362 369 374 372 369 364 362 363 371 368 359 348 338 333 326 321 322 320 315 317 311 322 329 345 364 408 394 382 376 379 348 351 348 337 328
336 338 341 337 340 341 342 343 345 354 365 366 361 352 349 357 363 374 377 370 363 359 356 354 367 366 362 354 348 346 334 327 321 320 321 316 313 308 308 306 308 315 321 324 330 347 376 394 388 365 349 344 335 333
328 323 329 333 340 344 347 349 332 332 334 343 356 362 368 369 362 354 351 350 347 355 369 365 356 351 345 338 333 327 324 321 316 314 315 312 309 309 310 324 351 349 353 354 334 321 321 330 339 340 337 337 336 337
337 352 350 345 342 350 359 361 363 356 350 348 349 347 347 346 345 344 359 372 370 358 357 351 348 343 336 331 322 318 317 314 309 311 311 315 320 330 342 348 336 324 331 347 359 354 342 326 315 314 315 316 318 319
352 354 353 349 344 342 346 346 346 345 342 346 346 351 357 365 377 373 360 348 347 352 351 345 337 330 326 325 320 315 309 310 315 323 330 340 358 368 368 363 357 355 351 350 346 345 351 357 352 343 337 330 324 318

GFSWCAN_2pvu_pres_024.txt.gz
Presure
212 208 216 202 201 208 211 202 196 230 229 218 206 194 190 187 201 191 197 193 189 188 183 185 183 183 185 184 196 188 189 192 197 198 195 194 194 193 199 202 199 210 216 213 181 169 195 204 203 191 184 185 178 175
220 211 224 213 201 205 203 209 204 232 228 224 216 213 194 190 194 189 183 201 194 195 198 189 183 193 194 186 193 200 191 198 197 193 192 197 200 198 199 202 209 215 212 218 192 188 200 200 203 184 163 163 172 178
227 212 216 213 204 198 204 204 201 239 226 227 216 203 194 194 193 192 190 182 200 191 187 198 198 190 190 190 184 188 191 191 196 198 197 195 194 196 201 206 216 218 215 214 196 195 201 206 186 174 172 183 192 203
226 209 218 214 202 193 207 199 204 202 233 227 214 211 218 192 196 199 200 202 199 202 186 187 199 192 199 201 200 204 200 200 202 198 202 212 199 207 202 212 212 118 212 214 201 198 198 186 175 183 188 188 197 200
233 215 214 217 204 184 206 193 201 199 204 180 228 210 214 200 194 191 201 192 202 201 205 196 199 197 194 194 195 196 199 201 199 199 201 208 214 177 214 208 188 190 197 200 210 195 188 150 168 191 186 189 193 204
233 224 217 199 216 202 207 203 190 201 194 208 196 229 226 191 208 209 202 184 214 219 214 171 171 199 191 199 199 197 199 200 205 204 209 192 191 197 196 212 157 201 203 205 190 186 190 190 200 192 183 193 208 202
225 221 220 215 215 214 204 203 200 192 198 197 198 205 185 213 213 214 211 208 212 212 213 214 196 212 208 192 191 192 197 200 215 199 215 201 229 234 193 179 176 196 187 172 190 195 198 199 197 196 195 208 193 203
219 227 233 223 214 221 209 203 203 189 182 194 195 198 203 198 199 183 195 204 207 190 201 187 185 191 201 202 210 224 227 232 233 224 216 222 182 189 183 188 194 191 191 191 192 192 197 191 189 195 208 191 202 202
245 240 226 232 219 217 213 190 205 206 200 192 193 194 194 198 199 195 197 194 191 187 189 204 186 187 188 189 190 190 190 196 193 190 186 189 194 190 194 196 191 192 194 190 195 205 191 201 212 208 202 203 208 216
245 255 257 232 215 218 219 212 196 198 203 204 203 201 188 190 191 190 195 189 198 192 196 191 192 189 188 176 192 196 198 189 193 194 198 182 184 184 176 194 199 199 202 201 197 202 202 211 202 205 200 215 212 217
248 243 259 245 229 228 220 216 216 204 207 194 201 206 199 191 195 194 198 192 191 190 190 189 184 183 191 194 194 197 193 194 201 192 194 192 193 193 193 199 199 200 201 199 202 193 205 204 211 213 211 224 224 222
239 246 244 249 256 239 234 230 220 216 209 203 212 201 202 203 202 199 201 199 201 197 191 188 189 191 192 193 194 191 199 206 200 200 201 197 195 200 201 199 196 201 202 206 208 210 207 212 215 222 226 222 233 234
253 251 254 253 236 232 240 242 239 234 228 220 216 211 210 201 199 209 209 207 207 205 201 205 201 202 206 201 202 205 205 206 211 212 207 204 205 205 204 207 209 211 210 215 220 224 225 227 227 232 235 233 257 262
246 236 227 235 228 247 247 255 231 235 236 235 232 229 218 216 216 210 198 197 199 198 188 189 201 209 198 202 209 217 218 210 198 213 214 213 211 222 219 223 226 224 226 222 221 224 225 224 229 239 248 243 232 252
237 256 247 235 243 223 231 228 245 239 236 237 232 230 244 244 231 223 218 220 213 213 213 208 209 209 207 207 208 214 217 222 223 222 223 221 224 221 222 225 217 220 222 230 245 239 244 258 245 236 233 243 263 266
242 241 260 265 227 243 246 222 222 227 234 233 231 244 242 245 249 242 241 238 235 236 222 222 206 203 214 214 214 220 226 233 230 230 228 224 228 222 223 224 233 249 258 250 254 245 231 239 257 272 272 270 280 278
263 252 248 260 277 258 227 258 258 240 283 239 230 226 233 234 246 257 229 233 245 243 238 240 233 240 249 241 233 225 220 220 221 222 227 234 252 255 251 257 264 233 258 253 262 266 261 270 263 268 276 296 291 284
273 270 268 266 267 267 269 260 244 258 276 224 232 229 217 256 230 234 243 228 237 247 235 240 239 237 243 258 251 247 248 249 251 255 264 247 249 250 227 236 227 244 253 265 266 271 267 273 282 290 292 289 291 278
267 267 266 265 268 275 277 273 269 273 223 278 239 268 231 278 268 244 254 246 230 234 250 248 252 240 251 243 244 243 242 253 262 263 245 227 235 236 201 265 274 268 265 249 261 286 277 276 275 274 290 293 307 342
298 310 312 264 265 265 266 262 261 261 259 256 262 265 244 223 228 217 245 255 262 225 220 249 268 254 231 229 259 229 262 237 236 238 244 228 266 262 223 263 268 272 274 271 283 277 271 283 300 302 310 337 421 406
328 324 311 310 316 328 328 349 347 316 270 270 263 264 266 268 260 269 266 223 259 258 264 236 255 233 231 237 247 243 241 224 222 253 234 255 269 274 280 278 276 278 278 288 287 299 301 304 324 417 397 402 402 391
352 351 357 359 351 342 326 310 310 325 345 331 342 329 318 322 323 285 262 313 274 281 260 262 271 255 273 270 240 249 239 261 272 242 285 289 280 302 318 288 290 295 301 307 314 348 427 418 405 393 386 384 386 380
358 352 355 356 358 358 349 352 347 329 305 298 316 330 335 337 340 328 305 306 307 309 313 312 319 291 329 254 260 266 297 320 330 326 316 309 312 313 310 312 347 377 427 436 429 412 392 379 369 367 370 384 390 386
365 366 370 369 378 378 372 354 356 347 345 345 342 333 317 313 313 318 323 332 336 336 340 341 344 341 347 347 349 350 353 302 352 366 367 381 382 372 382 413 424 418 415 406 388 375 363 356 356 351 428 418 404 392
341 342 346 353 362 360 360 357 351 346 338 340 344 342 341 341 341 340 334 315 312 311 313 317 322 327 336 277 343 349 349 349 365 367 374 412 417 421 421 411 409 401 380 369 355 351 339 339 345 348 462 434 409 392
361 342 339 338 332 334 335 337 335 334 335 335 336 339 339 340 354 338 342 338 342 332 332 186 302 333 336 340 363 375 365 376 402 407 403 408 404 396 398 403 384 361 349 342 332 330 326 325 326 329 390 431 405 393
343 336 336 333 330 328 327 333 339 345 345 349 336 328 328 346 343 354 358 354 347 360 360 347 352 370 373 397 399 391 388 389 392 392 387 383 380 385 379 369 355 343 335 324 328 316 322 317 315 317 322 331 406 396
330 348 337 347 360 338 327 330 344 345 344 338 340 345 342 341 337 335 338 342 356 364 365 367 390 388 388 379 379 376 377 380 374 369 368 380 375 364 354 344 338 332 324 321 321 320 318 316 314 328 360 340 321 339
316 327 329 324 325 320 323 329 328 323 328 332 333 323 328 328 338 352 357 363 357 382 373 370 367 378 386 381 377 372 364 361 363 375 372 360 351 346 340 332 325 322 318 316 319 317 315 317 334 349 338 339 350 325
337 328 321 327 333 328 330 335 341 344 346 342 340 340 345 346 355 367 367 364 362 363 369 373 372 367 362 358 354 358 374 372 367 360 353 345 340 334 327 323 320 320 319 314 315 318 323 342 362 363 354 340 340 359
320 326 329 328 317 328 327 331 332 333 337 340 349 352 352 350 344 353 358 357 356 357 356 351 347 347 353 371 373 364 360 361 355 350 344 339 334 330 326 322 317 313 315 317 322 337 359 362 359 356 355 350 349 345
323 329 333 327 327 334 335 335 343 344 346 349 356 363 363 358 351 343 340 349 351 353 355 366 379 376 364 354 349 350 351 348 345 339 336 334 331 324 320 318 319 325 338 357 364 360 353 346 338 335 333 336 336 337
337 345 355 369 375 376 383 367 362 354 346 346 344 347 353 355 356 357 361 366 374 379 372 361 352 346 342 341 339 338 337 336 330 327 323 327 342 346 351 363 365 363 361 412 407 428 450 443 436 427 419 416 356 343

GFSWCAN_2pvu_pres_027.txt.gz
Presure
238 210 211 212 211 212 195 215 229 229 227 209 226 216 199 188 182 205 193 187 187 185 186 189 194 192 191 194 195 198 194 196 186 190 197 187 193 200 199 198 195 196 199 195 202 206 212 203 215 216 223 226 216 202
234 214 208 214 208 210 194 210 211 237 232 218 217 217 201 195 185 193 199 191 180 189 189 190 192 182 194 189 191 191 181 186 195 193 197 197 194 196 194 201 199 191 193 198 190 209 213 217 216 223 209 206 204 195
230 214 216 213 206 210 203 206 214 207 236 229 214 213 191 206 191 200 180 197 199 190 192 188 183 180 199 176 178 180 184 194 191 191 187 192 195 199 201 195 197 203 207 199 214 208 217 205 195 212 225 117 188 183
227 216 212 209 205 207 200 206 206 213 217 238 200 223 204 196 210 193 191 185 198 191 193 198 198 196 180 196 190 185 193 196 191 188 198 197 199 197 194 199 201 193 206 212 201 205 220 253 200 197 197 198 183 193
231 234 215 208 208 199 200 200 206 206 208 236 246 190 213 203 203 205 196 191 187 195 188 196 188 184 201 194 191 183 177 193 200 196 193 193 188 196 191 194 196 181 209 215 221 222 204 193 191 197 199 195 197 197
241 224 218 214 208 206 208 199 207 205 210 206 240 233 190 218 204 209 203 193 191 193 195 185 187 199 198 198 204 200 198 192 193 197 200 196 202 205 201 193 184 205 215 227 241 182 188 186 195 201 195 197 198 204
241 224 221 214 213 206 212 206 204 199 206 201 212 206 240 231 224 217 207 208 190 190 195 194 189 192 189 195 192 180 171 194 199 187 207 209 194 193 207 214 221 198 196 184 182 193 191 197 196 195 202 203 199 201
244 230 222 213 198 210 212 212 204 205 201 206 197 205 215 233 204 229 223 225 201 198 193 179 179 183 199 186 212 207 204 208 194 204 187 189 205 208 181 179 184 188 193 194 195 185 189 198 200 200 194 208 203 202
237 239 217 220 211 210 224 215 210 202 188 208 206 203 194 202 214 225 226 216 214 216 211 206 205 199 196 214 216 212 186 187 190 199 208 214 187 185 189 198 195 188 191 191 193 194 198 199 194 197 204 210 207 214
250 236 239 218 222 215 203 220 196 208 206 207 206 205 191 201 205 205 208 216 222 184 174 179 222 218 203 206 210 209 195 200 205 200 202 193 180 183 186 191 198 194 193 194 203 207 209 211 205 207 212 214 214 228
244 253 220 232 231 217 198 215 223 204 211 203 207 202 201 199 193 193 192 198 197 203 201 197 195 190 194 199 196 198 200 198 198 195 196 195 190 194 196 192 191 202 203 202 204 208 205 204 209 216 214 215 226 224
249 247 244 253 252 224 212 215 216 212 203 212 206 203 201 203 203 201 197 196 197 193 190 191 192 197 190 198 198 195 200 196 194 195 196 195 195 193 195 199 203 200 200 203 211 210 215 215 212 220 224 226 218 230
221 244 232 254 264 261 229 229 213 217 217 213 199 209 198 201 205 207 208 206 203 200 200 202 199 201 204 199 196 199 196 202 206 205 205 206 206 207 206 201 201 207 214 213 210 213 213 223 226 232 231 227 236 252
261 246 263 233 256 258 218 230 228 222 219 219 216 211 217 191 189 190 189 205 207 203 200 200 203 206 200 200 203 201 200 210 207 207 211 208 209 209 207 215 219 211 210 211 222 224 226 231 225 231 239 269 252 227
257 262 263 261 243 248 249 253 257 247 224 227 221 213 217 221 220 216 214 209 204 207 203 203 203 208 205 206 207 208 211 214 216 217 217 213 218 218 215 210 219 220 221 229 230 248 246 243 255 262 261 238 249 282
251 232 234 260 263 254 254 237 248 250 252 250 251 233 227 223 223 226 216 220 220 215 210 211 209 205 213 210 213 216 216 219 222 221 221 219 220 227 226 233 235 237 248 260 261 259 262 248 240 253 236 248 284 280
242 242 249 238 220 240 230 260 247 266 245 252 248 254 252 248 239 235 240 244 245 242 239 239 240 244 245 228 226 256 221 226 203 228 230 234 232 241 246 252 256 259 253 250 251 229 237 243 258 269 274 276 280 281
254 250 242 246 245 237 222 228 249 252 248 244 258 247 238 234 243 204 225 240 244 240 247 242 243 245 247 252 250 252 249 247 247 246 246 252 256 259 255 248 235 293 287 257 251 246 249 270 271 267 271 274 280 296
258 274 261 259 254 253 267 256 231 267 231 271 233 248 279 223 241 270 241 245 243 230 258 274 283 280 242 244 251 240 247 248 242 239 243 257 274 258 264 243 246 206 185 249 249 256 255 277 274 272 275 299 313 302
265 272 277 275 270 262 260 260 260 256 256 261 244 224 258 267 244 264 258 236 235 233 235 232 256 249 243 247 234 238 232 255 275 273 259 242 234 255 255 258 262 265 252 277 276 275 274 278 278 298 306 302 421 430
272 272 271 277 278 283 285 283 285 284 282 271 272 277 277 270 275 276 280 249 260 274 230 269 219 247 250 262 276 253 226 224 225 233 267 236 239 129 277 278 264 258 252 295 295 299 322 328 324 382 436 428 406 383
326 325 325 319 290 286 280 273 273 272 272 277 276 275 272 265 263 260 262 258 257 260 251 261 265 237 246 272 286 268 268 268 290 268 268 277 286 301 312 300 313 316 315 310 325 326 372 348 433 426 412 392 373 359
312 321 326 328 331 337 339 336 328 324 324 329 303 304 306 303 306 306 302 319 340 343 343 340 327 329 324 313 313 315 317 315 336 296 332 320 318 338 346 352 353 353 349 338 326 371 423 421 412 400 380 365 354 346
354 360 361 360 364 366 367 365 370 365 364 369 364 364 360 354 352 350 333 330 321 314 316 315 316 315 319 325 325 328 331 333 334 331 337 334 332 327 320 319 322 331 399 418 410 406 404 398 383 371 357 351 344 335
387 387 383 389 385 387 385 385 374 390 353 364 362 363 359 353 348 349 348 346 343 348 347 345 343 342 340 350 344 351 354 351 346 344 355 360 369 375 403 406 407 405 396 389 388 392 388 374 362 351 346 339 331 325
379 358 361 360 356 361 362 363 366 362 362 364 362 359 350 349 346 344 340 340 342 341 341 343 343 348 350 352 353 360 359 361 364 403 399 400 399 400 399 397 389 380 375 379 388 381 370 358 349 340 335 329 323 318
410 417 392 357 351 336 337 338 339 339 339 338 338 339 336 338 335 335 336 337 341 344 338 338 336 340 343 360 370 378 394 391 381 382 386 390 388 388 384 378 374 372 380 381 371 363 358 350 339 333 329 324 320 314
375 372 349 364 347 339 329 329 326 327 328 327 328 325 340 345 345 348 347 343 342 345 345 345 347 349 355 376 381 378 371 371 381 381 381 379 371 365 362 370 381 380 373 366 358 350 345 338 332 329 326 322 315 315
362 355 335 343 333 333 328 328 329 329 323 330 331 340 340 342 339 334 329 338 348 351 351 355 363 366 365 359 367 373 370 368 362 356 353 354 368 376 374 368 366 363 359 354 351 348 343 338 333 327 321 320 322 330
341 338 338 340 332 334 336 336 337 334 333 333 335 333 329 333 338 345 344 338 345 353 361 361 369 343 348 366 361 361 359 357 359 368 385 370 357 351 350 350 350 349 345 342 337 330 330 332 335 339 341 342 350 355
332 337 333 332 333 336 335 332 330 330 330 331 338 333 330 335 340 344 345 347 340 363 366 366 363 360 357 360 363 369 376 383 376 364 351 345 344 342 339 337 333 331 334 337 343 352 358 362 370 519 500 475 463 436
327 327 317 322 319 321 322 324 326 330 335 338 336 338 342 346 352 365 364 360 354 355 355 357 360 361 366 377 370 352 347 348 350 349 348 346 345 345 345 349 342 361 361 353 421 410 452 651 632 603 576 549 524 483
332 332 334 334 337 334 337 340 348 354 357 364 369 364 358 355 351 350 352 353 355 356 360 366 362 348 342 342 345 345 344 343 341 339 347 345 346 337 331 363 347 348 420 384 369 373 453 627 615 604 458 473 526 501

GFSWCAN_2pvu_pres_030.txt.gz
Presure
248 236 241 219 227 216 218 227 229 249 228 236 200 209 204 219 194 204 200 207 200 196 187 183 189 204 205 195 197 220 207 195 197 197 195 190 195 182 191 193 197 197 194 199 210 211 202 205 211 198 210 208 201 229
243 238 232 219 216 216 216 216 232 236 256 223 208 213 199 213 196 201 197 205 194 193 184 181 193 193 202 203 211 205 200 189 191 197 185 187 184 188 192 191 200 190 202 196 91 139 207 204 206 209 219 215 218 198
238 231 222 219 213 217 207 217 223 239 249 224 215 226 205 206 182 193 210 201 183 195 190 180 194 196 191 194 198 183 187 190 187 190 187 182 186 188 187 196 192 192 105 197 203 198 201 211 206 219 229 209 196 189
241 225 224 221 215 215 210 209 201 238 228 220 225 207 216 209 199 195 205 200 188 198 196 193 183 183 184 190 192 191 196 197 189 182 187 190 188 196 192 196 191 179 183 196 198 209 215 207 211 201 196 195 180 190
237 223 226 218 218 211 212 205 214 234 234 227 212 213 225 211 204 204 205 203 184 201 197 196 192 190 191 193 190 190 190 189 188 190 201 200 185 188 196 191 185 178 202 199 216 205 208 224 190 188 192 197 199 197
240 240 228 209 218 212 214 204 212 200 234 231 220 219 224 215 207 209 204 203 192 193 206 187 180 199 197 181 188 196 198 198 197 201 195 197 206 207 195 182 115 188 208 208 192 208 206 188 193 201 192 190 195 197
235 243 229 215 210 213 212 204 212 196 201 224 229 230 222 216 221 224 200 206 191 186 189 196 195 182 193 187 203 193 186 190 198 196 189 191 196 181 185 163 203 151 205 191 205 206 190 191 193 192 201 193 203 204
238 241 232 219 218 216 213 211 207 206 197 207 210 215 239 227 218 218 223 205 206 203 207 196 188 194 191 187 187 196 198 190 192 190 186 194 198 200 187 161 207 185 197 201 195 187 190 189 197 194 199 203 206 203
251 243 239 226 204 218 209 212 202 209 204 204 208 206 182 208 247 234 221 224 204 206 200 198 200 204 201 197 194 191 192 188 189 194 196 201 203 203 216 208 218 201 198 194 196 199 198 193 196 203 204 199 211 213
245 243 252 229 217 211 217 207 211 206 209 203 200 204 203 209 173 248 190 234 241 230 189 210 207 206 203 203 204 205 199 198 197 204 205 206 199 222 213 212 197 196 194 198 196 191 201 206 204 209 206 214 211 214
234 248 244 252 218 217 224 216 207 197 206 209 204 199 205 199 205 208 206 205 217 233 231 229 231 230 226 218 218 223 219 219 216 210 211 224 190 194 196 194 192 195 198 202 204 207 207 211 211 211 214 216 222 214
237 238 248 245 244 212 227 217 216 205 212 212 208 211 206 198 193 206 209 206 202 198 199 198 208 219 220 221 227 227 226 222 215 213 200 197 198 112 196 199 200 203 204 205 209 210 202 216 218 213 215 218 217 223
247 245 239 240 245 240 209 215 220 208 207 201 206 207 210 211 209 207 197 204 203 204 198 192 194 198 198 198 199 200 200 199 200 198 197 198 201 208 208 209 208 208 206 209 204 213 214 214 220 214 222 224 225 242
246 248 239 241 246 239 240 230 215 215 211 210 214 210 209 219 216 200 208 208 202 206 202 203 206 204 202 205 210 208 207 209 206 210 212 209 210 210 209 209 212 216 218 217 220 219 216 214 225 226 230 252 260 256
249 245 241 238 239 242 244 239 232 231 214 210 217 211 219 215 208 216 217 200 192 196 205 195 187 188 201 206 208 205 206 208 212 209 210 213 212 219 219 214 217 222 222 225 233 236 242 258 260 254 253 258 278 290
243 241 225 227 237 232 254 261 247 248 236 230 228 223 222 220 215 221 223 218 214 213 213 215 215 216 215 213 212 211 214 215 217 217 219 219 225 223 219 225 234 241 247 259 264 259 260 253 257 268 260 248 240 263
251 238 246 247 244 244 257 228 224 262 256 251 254 245 251 223 231 232 222 219 221 224 223 221 223 222 218 210 211 210 215 220 225 220 227 225 226 234 237 252 255 260 259 257 262 250 239 239 240 248 243 285 252 253
264 232 243 241 254 259 258 256 258 259 261 260 256 257 259 259 255 252 225 230 233 235 236 229 231 233 237 236 234 232 232 232 235 236 240 250 255 255 268 290 275 280 251 286 277 265 257 262 259 283 281 294 271 277
235 252 250 257 230 243 233 230 256 282 250 248 257 268 263 257 258 256 261 256 261 263 262 254 252 255 251 254 258 261 262 259 271 253 239 252 239 247 230 251 249 243 241 249 249 270 286 284 253 264 290 302 316 309
243 243 242 242 247 245 256 237 243 248 252 223 230 243 261 250 247 249 250 255 246 250 257 250 246 246 259 255 268 246 246 260 259 257 256 255 268 237 241 265 272 272 276 276 280 267 288 253 268 291 357 345 339 336
279 252 246 260 242 260 257 255 258 259 252 256 265 266 267 268 225 223 242 234 224 242 255 245 260 237 235 234 230 285 259 236 278 280 280 280 281 273 255 247 275 265 293 315 328 331 339 342 338 333 331 320 322 419
261 259 256 259 264 269 288 276 258 270 267 266 271 280 271 298 297 291 281 272 269 274 271 271 274 281 275 284 248 306 267 287 270 255 260 259 277 344 339 343 337 334 336 329 330 335 332 303 319 399 410 404 400 393
279 279 269 272 269 269 268 268 274 271 267 267 267 273 277 280 280 280 280 278 276 276 277 275 275 272 272 272 276 273 277 282 309 315 328 325 324 326 328 331 338 358 373 372 383 394 402 401 403 395 389 383 383 386
318 313 311 313 285 311 279 301 274 281 317 321 316 324 333 338 336 335 337 334 359 358 361 351 359 351 355 350 349 349 350 352 351 352 357 361 363 363 362 363 369 377 396 402 405 404 401 393 386 380 376 376 379 378
307 311 318 320 321 311 312 310 312 357 364 373 381 380 379 373 371 375 367 364 364 360 362 360 356 355 353 353 353 352 350 350 351 351 356 357 356 358 363 396 393 391 389 394 394 387 380 375 374 379 379 380 377 368
369 399 400 404 402 403 399 390 387 385 392 392 385 385 385 377 381 363 360 357 358 361 355 353 351 352 350 347 346 344 343 346 347 350 349 347 360 360 383 380 382 381 377 373 370 369 373 379 377 374 369 365 362 358
479 456 462 461 455 425 368 361 357 356 355 355 353 355 354 358 358 352 352 358 347 349 346 343 342 342 341 350 357 341 340 352 368 374 377 377 374 375 377 372 368 364 362 364 392 383 369 361 359 357 355 351 347 343
404 403 404 403 416 414 447 370 352 346 343 337 337 333 336 335 334 335 334 330 332 335 350 355 358 354 348 344 345 350 357 364 368 370 365 380 374 367 365 367 379 390 394 373 360 357 354 352 347 344 342 340 339 343
367 365 368 374 379 382 363 359 354 356 339 340 336 337 333 332 338 334 332 338 344 342 339 339 341 346 352 352 352 352 359 375 369 367 367 367 369 376 384 381 367 360 358 356 354 353 352 354 351 351 363 357 360 377
350 356 359 355 351 363 348 349 355 346 346 336 336 343 331 335 339 338 337 336 336 340 348 347 345 349 354 356 371 374 365 361 362 363 367 372 374 355 348 349 350 349 345 346 346 345 337 370 356 361 413 387 366 359
340 346 349 345 347 346 344 342 343 340 338 341 344 342 328 320 325 331 333 337 344 347 350 355 375 390 381 368 360 361 362 365 370 362 348 343 346 345 346 338 346 352 348 336 354 366 344 352 414 381 360 358 288 478
346 344 340 336 336 325 331 326 321 321 321 321 323 327 333 335 337 342 344 351 369 377 366 358 356 356 354 357 368 377 342 340 339 343 346 347 353 351 352 347 324 377 367 357 342 345 415 386 357 349 352 389 356 496
331 323 322 319 319 322 327 327 330 329 332 333 336 338 346 359 369 368 361 357 357 354 356 363 370 370 359 350 348 350 350 349 347 350 343 351 353 387 377 366 356 352 338 343 424 407 371 350 347 349 351 547 372 570

GFSWCAN_2pvu_pres_033.txt.gz
Presure
281 288 292 247 257 258 243 235 229 218 267 245 237 220 208 206 212 205 194 206 203 204 187 202 190 197 189 184 194 193 187 187 215 211 199 194 196 189 194 192 193 187 184 190 191 148 109 195 197 198 198 203 206 206
259 281 260 254 250 242 232 222 226 215 252 242 231 221 211 204 201 207 186 203 210 206 191 202 193 193 192 190 190 182 203 205 202 217 209 202 194 194 194 194 189 179 185 93 193 196 200 192 192 198 200 208 202 204
278 256 245 241 247 232 229 220 223 214 244 249 227 217 207 195 203 211 200 199 199 204 207 198 190 193 184 183 188 202 195 189 215 205 207 202 189 191 183 185 183 184 194 194 198 195 141 130 184 193 199 208 190 205
254 248 241 242 238 229 221 220 218 213 240 229 239 221 210 208 209 204 198 191 199 210 195 202 191 193 190 184 178 195 202 200 193 192 190 188 187 189 189 180 185 176 168 205 199 204 199 181 189 201 211 198 212 206
240 247 231 228 242 227 216 219 215 255 227 229 232 217 212 210 208 207 204 196 194 200 193 207 197 192 192 185 182 174 200 184 187 190 195 196 197 198 190 188 191 205 194 198 196 160 186 197 205 213 199 207 202 197
242 238 223 230 240 227 217 216 215 213 252 195 230 245 213 217 202 204 215 204 186 196 195 207 199 191 194 192 190 194 192 190 195 198 194 192 198 196 171 178 164 110 148 193 193 196 201 202 210 209 216 203 193 194
231 242 231 231 226 228 216 215 212 195 217 240 202 222 209 221 214 218 197 209 206 202 191 201 202 196 186 198 195 190 201 200 198 199 193 193 196 194 182 183 183 175 186 191 199 201 199 192 207 222 209 200 193 199
228 231 235 229 221 227 213 223 208 207 203 218 248 205 222 216 223 202 213 199 207 203 207 197 207 200 191 186 194 203 202 198 190 106 182 186 188 188 186 192 183 189 192 189 190 196 201 208 218 201 195 200 202 206
246 241 236 230 223 227 217 218 213 204 209 211 239 237 226 223 215 212 208 207 216 217 207 197 203 205 206 195 192 195 166 100 189 190 190 182 189 188 189 188 189 193 196 200 206 219 210 198 192 200 202 209 218 212
235 244 227 230 218 226 224 215 216 200 205 213 209 234 239 226 229 214 210 214 239 210 210 200 208 208 208 203 202 201 206 206 200 206 202 199 201 201 204 201 209 214 216 217 201 207 228 200 200 204 213 208 211 220
230 245 239 230 215 229 229 216 218 214 208 207 210 193 197 212 229 237 233 230 235 220 193 206 213 227 223 213 217 212 203 202 200 204 205 204 203 211 219 222 207 210 216 230 219 202 202 207 212 208 212 212 215 223
257 230 235 231 236 215 227 219 217 213 213 212 206 212 203 199 200 203 200 200 200 197 190 210 237 236 231 231 228 229 229 229 230 228 228 229 221 221 226 225 217 202 200 201 207 210 206 211 213 213 210 215 221 222
249 239 243 240 238 244 236 219 224 208 216 214 209 212 207 209 206 202 198 198 201 202 204 209 208 209 206 209 205 224 210 209 210 205 202 202 212 201 199 199 203 210 211 210 204 210 214 212 213 220 221 222 227 232
241 257 248 254 225 225 237 241 222 230 212 201 212 217 207 201 187 207 208 208 204 201 203 205 204 203 199 200 207 213 212 210 207 208 206 209 210 209 207 212 210 208 208 214 215 208 221 224 217 225 234 234 244 251
251 229 238 241 241 246 245 244 233 227 220 220 220 217 216 210 207 211 207 207 207 210 210 207 208 209 209 211 212 212 213 213 211 209 209 211 212 215 218 219 217 216 213 219 224 224 223 227 233 234 233 252 256 261
238 241 246 256 240 238 236 242 242 239 239 235 222 214 213 220 220 215 210 209 210 208 209 211 210 212 217 215 216 217 218 218 217 218 221 220 219 218 220 224 228 229 230 232 236 230 240 257 279 263 262 269 255 244
252 260 256 257 254 253 240 239 242 242 234 235 241 239 227 219 212 209 210 215 223 223 217 215 214 215 216 215 219 219 223 224 222 223 222 222 223 220 224 227 232 243 245 218 237 274 280 266 259 252 263 258 284 276
249 254 253 256 246 246 250 247 250 235 239 241 239 241 243 240 237 237 236 234 229 228 222 220 220 222 220 218 223 230 233 233 231 231 235 236 240 244 243 238 244 269 262 262 266 267 246 256 260 280 292 264 264 310
241 248 249 238 245 249 242 242 249 250 251 240 242 242 239 245 247 256 252 248 248 257 253 243 242 244 250 271 260 264 264 258 258 265 265 266 262 265 263 260 263 253 251 243 248 246 242 308 306 290 282 330 324 323
247 242 248 252 255 249 238 242 251 249 241 274 272 260 252 256 263 266 226 225 253 266 277 256 257 263 255 260 257 258 258 255 258 268 267 260 258 243 244 251 266 253 265 277 281 263 279 272 312 317 339 351 384 389
241 236 233 245 248 256 259 259 253 265 256 264 246 246 257 271 259 250 245 247 253 254 251 253 254 253 255 252 238 235 236 238 238 243 291 273 274 250 290 291 289 286 285 246 250 318 246 252 359 370 381 379 398 403
250 250 252 259 257 251 251 251 253 264 251 262 257 262 262 258 256 252 244 251 261 267 269 272 247 276 272 265 263 265 269 274 281 285 284 279 269 269 278 283 283 328 360 358 354 351 368 367 369 371 405 400 396 393
249 253 257 257 257 259 252 256 251 255 259 254 253 259 262 256 262 260 280 283 282 270 271 273 293 295 296 280 273 274 276 277 281 328 331 361 362 361 357 350 351 357 358 356 363 369 363 360 391 388 389 382 376 372
261 259 261 263 265 270 275 274 271 275 281 293 295 297 279 277 273 273 274 279 265 266 282 285 281 284 337 338 371 371 369 368 364 364 359 357 356 362 356 352 354 355 360 380 396 397 392 385 380 376 375 374 383 394
302 298 300 292 291 287 281 282 282 281 277 275 277 278 278 273 286 288 294 323 323 323 325 385 385 381 375 377 372 369 363 361 367 365 359 347 350 347 351 354 351 350 382 384 388 384 376 372 375 385 398 393 371 359
318 318 308 313 298 310 312 291 298 310 317 319 318 322 321 322 327 348 354 396 398 395 392 384 378 377 373 370 371 366 355 353 348 345 346 350 354 352 349 367 370 367 386 380 378 376 378 387 384 370 358 355 355 352
321 323 327 329 331 335 341 350 356 423 416 405 396 392 381 379 377 371 370 367 364 368 364 362 361 356 351 342 336 333 332 337 341 342 348 350 363 367 366 369 381 373 369 372 381 388 370 352 352 352 349 347 351 344
434 444 437 436 441 432 430 444 452 478 440 434 400 361 360 354 348 350 348 347 347 342 340 339 334 333 338 340 339 354 348 342 351 354 351 358 357 392 386 369 369 372 381 370 356 350 354 351 351 360 363 344 378 360
399 402 393 390 394 398 407 409 417 416 408 396 371 356 348 351 345 344 342 338 344 339 336 350 345 345 343 338 340 343 349 354 357 362 379 380 368 366 368 378 376 361 350 350 357 356 363 357 355 350 376 360 345 433
373 375 371 368 365 365 373 373 386 380 379 366 350 350 348 351 348 351 346 343 340 340 344 348 344 336 342 348 351 352 362 375 372 361 357 361 377 371 351 348 349 353 352 357 348 337 356 379 372 354 347 381 420 374
356 352 354 355 358 354 351 357 353 355 356 354 354 345 345 346 344 340 339 343 349 347 345 348 350 352 359 372 376 365 360 359 363 365 358 351 351 350 348 345 350 385 396 386 376 367 349 348 336 354 424 401 359 347
349 352 349 345 344 339 340 337 336 336 338 338 335 337 335 331 333 337 344 346 344 352 357 360 365 366 357 355 360 362 356 352 348 344 339 344 410 402 395 387 378 366 358 326 346 345 344 422 426 412 387 354 344 341
339 336 335 333 331 331 331 332 338 338 335 332 333 335 338 346 352 359 366 367 360 351 351 354 356 354 353 351 347 350 350 327 319 396 389 381 375 365 354 354 358 357 347 342 377 431 423 413 397 373 351 342 337 337

GFSWCAN_2pvu_pres_036.txt.gz
Presure
268 235 240 232 256 254 271 262 274 249 241 248 228 248 246 231 238 220 208 207 209 204 199 211 198 194 191 190 191 189 195 189 195 198 193 215 207 202 199 196 196 198 195 196 197 179 120 183 188 194 196 200 202 193
223 233 235 237 271 280 298 273 245 239 248 232 230 245 245 234 240 216 214 210 202 204 206 206 207 199 193 192 201 198 186 190 182 199 190 187 188 209 205 199 197 195 198 198 189 186 189 189 190 196 153 197 184 168
282 203 204 278 277 285 263 251 240 237 240 227 233 251 240 229 244 222 214 208 209 210 209 205 206 203 198 195 200 198 187 187 194 191 186 204 199 207 209 203 199 197 196 173 187 188 189 195 197 201 147 185 180 197
235 231 224 277 281 247 250 240 230 239 230 219 258 245 229 234 212 216 204 208 214 203 213 190 196 194 196 203 195 192 193 188 192 187 199 197 192 205 201 202 193 192 189 191 195 196 198 188 193 185 191 179 193 197
253 257 265 292 267 249 246 234 235 237 222 226 249 246 234 226 211 207 201 200 206 190 208 200 202 204 195 203 202 191 197 190 182 181 186 192 200 196 194 187 186 197 203 204 150 172 188 189 191 188 186 191 191 196
283 307 294 260 243 252 242 238 239 224 215 244 248 230 221 219 211 203 207 207 199 199 188 208 209 202 201 194 198 193 192 196 204 190 190 189 187 190 185 179 166 193 189 193 189 189 189 182 186 189 186 194 199 211
272 260 247 241 249 235 241 235 224 210 213 258 241 224 201 216 213 197 200 205 203 197 201 187 189 207 205 197 208 201 197 186 192 197 191 188 171 193 191 179 179 186 187 194 184 181 191 194 192 199 205 206 214 222
248 252 232 239 244 236 234 223 218 217 212 222 240 204 218 213 218 207 205 199 193 204 203 197 196 188 195 199 201 209 204 199 191 181 188 190 195 199 196 196 193 188 184 191 197 199 201 203 204 203 211 217 222 215
243 240 228 248 235 232 227 226 217 222 207 212 250 240 221 218 211 212 209 208 201 193 199 206 205 206 202 198 189 191 194 208 207 199 199 196 182 181 186 189 194 197 196 198 201 200 203 208 209 222 231 223 206 206
224 235 233 245 233 228 225 228 220 219 213 215 253 218 193 237 216 219 210 211 198 210 199 206 200 199 206 210 211 211 209 210 197 208 206 203 203 201 200 202 199 199 192 192 193 210 218 223 229 220 200 206 202 203
240 228 238 236 232 243 216 228 215 218 213 218 197 213 241 203 232 236 222 226 210 203 211 209 212 208 207 203 204 190 205 208 207 205 205 205 206 209 210 210 211 214 217 224 227 229 225 219 200 204 204 206 214 218
233 237 239 225 220 236 239 218 220 216 215 211 204 228 231 220 246 237 224 226 220 218 220 220 218 202 212 223 215 220 221 217 210 216 224 228 232 218 232 230 231 236 226 217 203 205 210 210 208 211 213 217 217 223
239 234 237 219 224 224 225 232 231 215 212 215 211 207 213 209 210 229 230 222 223 220 219 220 224 224 221 223 222 225 228 229 228 224 229 232 207 234 211 208 204 205 207 207 208 206 209 213 214 215 222 222 223 222
248 229 228 228 227 230 229 230 222 232 217 211 213 211 206 202 208 209 191 195 194 199 205 210 208 223 223 207 208 207 204 205 201 195 196 200 201 199 203 208 207 207 215 211 212 215 216 225 225 219 225 225 236 244
240 245 247 237 230 238 232 230 234 229 221 230 220 210 214 210 206 206 201 200 201 205 205 200 200 201 199 201 199 198 200 202 207 210 211 212 213 213 217 219 216 214 215 216 222 224 224 227 230 235 238 237 235 241
242 248 248 229 230 225 219 238 235 229 228 230 230 221 222 218 217 218 216 211 211 209 207 208 209 209 207 208 206 208 210 213 214 212 214 215 213 219 219 216 222 224 224 225 228 233 237 239 246 246 255 277 280 258
244 248 245 243 249 243 250 242 226 236 234 232 233 244 235 230 220 217 215 209 207 210 210 214 214 213 212 214 213 216 215 216 213 213 221 229 224 215 222 227 232 236 243 249 253 259 262 275 275 274 269 247 261 253
241 250 257 249 240 213 249 256 252 240 234 239 242 242 240 236 233 236 236 233 227 224 216 209 212 219 218 219 221 223 221 222 222 223 226 234 237 240 246 246 247 256 267 271 271 272 264 276 269 254 253 291 290 282
257 252 254 259 245 249 246 237 236 241 246 251 245 245 246 243 240 243 242 239 239 241 242 242 240 238 237 236 235 238 240 244 245 245 246 248 252 268 258 260 260 262 264 257 256 253 264 280 284 284 283 292 344 368
250 253 254 255 253 247 240 243 245 248 257 257 256 259 256 252 247 243 243 244 244 248 246 247 249 251 255 254 253 254 258 258 257 242 248 253 261 261 257 240 244 239 263 286 281 278 279 283 337 359 369 367 365 370
252 253 253 259 259 234 225 257 261 248 253 250 263 239 232 244 262 244 245 267 263 242 242 273 238 237 238 250 252 255 256 262 261 262 269 268 280 277 276 272 264 273 276 279 294 357 366 368 361 364 374 366 368 395
249 257 266 265 262 258 247 260 256 257 254 247 251 266 251 246 236 252 258 260 259 262 253 264 265 264 244 258 274 276 276 272 264 265 268 271 271 269 271 284 307 366 365 358 359 358 358 357 359 366 371 384 392 388
262 254 246 234 254 265 244 241 263 268 270 270 266 275 261 253 250 261 270 259 258 258 257 261 267 273 278 288 291 286 274 270 265 273 279 287 375 374 380 371 368 363 349 349 361 360 358 361 371 377 380 390 382 378
249 251 252 252 257 248 254 255 251 253 264 263 261 259 258 256 258 262 265 264 267 266 280 281 268 270 272 277 280 280 284 289 321 375 393 386 379 371 364 368 368 359 356 352 348 352 363 371 375 399 383 376 381 393
267 267 261 285 249 269 276 268 273 271 270 269 261 260 259 250 260 260 256 260 274 291 295 295 279 278 281 305 322 328 403 394 392 381 370 372 368 366 356 349 343 344 348 346 362 363 392 390 378 371 378 385 364 352
287 283 276 267 272 269 277 312 290 255 252 260 271 272 274 276 278 281 287 312 318 320 315 313 316 346 390 383 377 381 375 375 368 359 349 345 341 347 345 350 346 350 360 364 379 381 370 365 385 376 360 344 352 355
315 315 316 315 311 310 314 309 284 310 301 298 290 288 289 287 285 302 311 312 319 327 364 381 374 368 363 358 360 351 346 347 343 339 339 343 353 346 341 351 356 367 379 373 366 372 382 366 344 350 351 352 356 378
329 326 320 322 321 324 322 326 329 333 336 337 337 353 363 416 404 417 409 400 382 374 364 358 353 351 348 346 342 343 343 342 338 347 353 348 351 356 359 373 370 361 363 371 363 353 352 354 352 356 397 392 379 372
369 432 424 419 423 421 410 420 422 437 445 435 424 411 415 414 399 393 388 376 372 364 357 350 345 345 347 345 346 357 354 350 349 355 357 359 367 370 360 359 366 358 354 354 352 353 393 405 395 381 372 357 347 348
386 391 392 390 385 385 385 386 386 388 400 399 387 387 383 378 375 373 365 360 355 353 350 346 346 351 355 354 348 351 353 357 362 368 364 358 358 363 358 353 352 348 332 348 392 386 379 369 361 331 360 351 398 433
366 369 371 366 362 362 360 360 359 360 357 357 362 360 358 357 357 355 353 353 352 353 355 351 344 343 349 353 356 363 363 357 352 358 352 351 349 349 349 332 316 378 389 382 375 369 365 359 350 349 434 424 416 405
350 354 360 360 356 352 348 351 351 348 349 348 344 348 347 348 343 343 348 347 347 348 349 352 356 361 367 361 350 358 365 356 346 341 360 364 363 311 311 388 128 144 363 357 351 348 359 437 428 415 408 404 393 375
350 344 352 337 335 340 341 340 342 342 345 344 345 345 346 345 346 344 346 355 362 365 360 351 351 358 359 354 349 342 343 367 373 414 404 327 377 366 358 354 373 376 450 442 438 426 417 408 400 400 394 376 358 345

GFSWCAN_2pvu_pres_042.txt.gz
Presure
314 308 299 292 279 277 270 282 260 242 284 161 247 285 277 259 242 168 223 225 264 264 246 224 214 216 212 223 217 205 215 202 198 202 205 195 195 192 192 203 202 202 204 205 204 203 203 199 198 196 198 198 198 199
274 263 290 281 275 279 287 294 302 286 277 274 269 250 261 241 238 248 250 243 268 250 239 214 215 219 230 224 207 213 215 203 197 199 197 191 188 193 196 194 189 200 206 212 207 188 197 206 204 206 205 203 201 199
262 271 281 281 260 279 264 261 265 241 263 254 230 256 256 271 252 251 247 242 264 239 232 220 208 214 222 204 213 204 211 201 195 199 195 193 194 191 189 189 193 189 186 188 195 188 200 201 200 200 205 192 201 191
251 261 255 255 256 235 261 238 259 256 248 254 257 252 247 257 232 250 236 249 253 228 224 217 211 217 222 217 211 212 209 198 195 198 194 197 189 191 189 189 188 189 187 187 193 191 186 180 194 195 202 201 187 196
252 246 255 261 239 238 254 253 273 262 260 252 249 262 253 245 244 239 231 250 247 226 222 218 215 216 206 206 216 211 204 200 196 197 199 193 190 189 192 196 197 195 195 197 197 196 191 202 196 194 188 191 196 193
253 247 244 241 248 245 206 207 239 254 237 251 265 255 240 244 240 235 255 240 259 226 225 216 216 217 205 211 212 203 208 203 195 197 196 191 191 194 192 196 197 193 197 196 189 198 195 200 183 202 197 188 194 202
238 240 242 249 252 251 249 218 261 230 217 258 258 243 243 238 235 259 242 241 250 225 213 215 211 209 214 209 213 211 209 204 200 200 199 198 196 195 193 193 194 198 200 197 203 200 206 204 190 189 195 206 206 208
242 233 214 237 250 238 239 277 254 236 252 258 248 241 238 229 251 245 236 234 230 232 203 210 204 200 207 207 208 207 197 200 207 204 199 196 200 199 195 191 196 200 201 198 204 195 207 205 208 209 199 205 217 214
251 238 232 253 272 275 237 268 276 257 253 233 240 237 228 223 222 251 221 239 226 216 203 205 205 205 205 209 207 208 192 202 210 203 204 206 203 181 203 205 208 198 202 204 208 200 205 205 192 212 213 212 221 234
226 202 202 245 274 286 242 263 251 243 230 238 228 231 222 222 239 209 239 242 223 217 208 208 209 201 208 204 202 210 213 214 203 198 203 202 202 114 202 195 203 202 195 199 207 200 193 210 211 211 222 230 227 203
241 241 217 275 268 243 273 254 251 232 237 234 230 221 221 221 238 244 243 231 235 221 217 207 211 206 196 198 199 204 209 207 203 201 206 204 201 202 198 199 201 204 206 205 203 205 211 212 220 227 237 209 210 207
232 240 243 249 266 269 255 254 239 229 232 224 231 229 215 214 213 230 231 239 225 224 233 215 200 214 210 201 181 193 204 207 207 195 190 182 204 210 211 209 193 205 203 210 215 223 232 236 225 212 207 212 213 213
263 249 239 269 247 262 247 241 232 232 232 232 226 228 220 215 210 245 235 236 228 234 237 231 217 211 214 209 208 208 207 207 206 202 198 205 205 202 211 214 210 214 216 221 228 221 209 207 210 212 215 214 211 224
259 255 244 262 257 249 239 240 237 236 220 221 228 231 226 215 209 208 247 236 235 225 227 190 226 221 220 218 198 221 202 203 211 214 216 215 216 213 209 217 223 227 229 229 210 209 207 214 221 209 206 225 227 234
264 262 266 260 250 241 236 231 244 226 229 216 227 228 228 211 212 246 231 241 240 240 225 217 217 197 200 203 199 205 208 202 210 212 211 207 223 231 233 236 223 210 209 204 212 215 213 201 209 226 229 238 243 243
249 255 246 247 242 243 233 231 238 231 228 228 229 221 229 223 218 213 211 218 212 244 241 232 225 225 223 220 220 223 226 230 234 235 241 243 224 220 204 205 214 213 215 214 204 215 225 232 240 245 245 249 253 256
251 255 246 246 237 234 230 228 230 233 242 240 230 229 223 222 220 219 221 216 215 212 210 236 238 240 231 231 225 217 215 202 200 200 202 205 211 213 215 215 216 215 207 226 234 247 246 245 246 255 255 261 272 264
248 243 248 240 237 240 236 225 232 237 227 226 230 233 232 220 222 231 225 218 213 213 212 212 216 217 217 217 217 219 218 216 216 214 214 215 217 219 223 231 237 242 248 248 247 251 250 254 251 266 261 258 254 282
248 243 241 241 244 248 235 239 244 249 249 243 240 235 238 242 238 234 227 223 222 220 217 216 217 215 215 214 215 216 222 227 229 235 242 244 247 248 246 244 243 247 255 250 246 255 251 265 256 259 300 307 346 406
249 241 236 245 236 233 230 245 243 236 239 237 229 233 226 226 226 231 235 234 236 239 240 237 236 234 233 238 238 235 242 243 241 236 242 245 249 248 250 252 252 250 251 260 262 259 249 282 309 283 337 404 401 390
255 254 249 240 245 246 249 245 242 240 231 233 238 232 237 235 240 242 245 249 251 250 238 233 235 242 250 254 256 252 250 253 250 245 258 263 265 266 263 264 280 257 255 246 254 251 279 283 327 373 399 389 366 360
269 267 261 260 257 257 258 258 262 257 252 251 251 247 246 241 247 251 251 248 245 244 247 250 239 231 237 264 263 245 243 266 258 250 251 256 263 275 282 267 251 266 283 298 285 297 317 330 403 377 367 359 358 359
277 272 266 267 267 270 267 264 258 243 235 240 249 258 254 256 251 256 269 265 265 259 257 259 258 255 267 251 250 252 245 242 241 253 264 267 267 289 297 292 292 296 285 304 307 325 334 380 369 360 358 362 361 362
270 271 272 273 272 273 274 274 270 268 271 271 268 267 268 260 263 264 251 252 252 261 272 271 274 268 255 252 251 252 267 273 272 256 281 281 287 289 296 293 297 303 304 321 330 370 377 363 357 360 363 360 370 385
274 252 264 271 253 262 270 266 266 266 262 254 254 251 247 253 266 268 270 264 251 249 255 258 255 263 266 256 273 281 284 293 283 285 291 291 291 297 307 308 317 322 331 337 378 372 362 362 369 361 373 381 376 367
261 260 266 262 248 250 255 253 261 275 253 256 255 253 251 264 261 254 253 254 264 273 280 282 282 285 284 279 278 286 295 294 290 292 311 317 317 315 318 325 331 347 379 375 369 364 364 359 369 378 374 365 361 375
275 276 272 270 268 268 256 266 273 274 266 263 267 274 275 275 275 276 293 296 295 287 277 275 274 280 289 295 299 307 312 317 320 318 319 321 325 330 371 380 379 376 372 369 370 361 369 377 373 363 358 375 414 381
270 266 278 278 276 272 288 287 284 277 279 276 272 280 281 281 285 284 292 291 293 295 297 301 312 319 326 326 324 322 324 328 333 376 377 383 384 383 380 378 378 376 370 364 374 372 161 127 365 367 415 376 360 466
317 336 327 327 350 331 317 314 303 313 311 312 318 313 302 301 308 311 318 339 343 342 341 353 355 414 410 405 398 395 391 386 385 383 383 378 374 372 368 368 363 369 370 369 363 358 358 372 421 381 357 367 470 368
333 340 346 347 349 351 348 355 400 359 377 369 372 376 375 398 395 406 401 402 400 398 394 391 390 387 382 378 375 375 372 369 366 365 364 364 362 363 368 366 358 364 357 360 379 409 419 399 367 350 381 405 359 346
398 405 404 404 405 404 396 392 390 391 392 389 390 388 385 381 384 378 378 377 376 373 370 369 367 365 364 363 362 360 359 359 361 363 365 361 357 359 359 356 364 385 406 413 400 388 378 361 346 375 400 361 347 342
383 380 380 378 378 375 373 373 368 367 364 365 366 369 370 370 370 367 365 357 356 354 356 358 361 362 364 364 365 363 358 354 353 359 357 352 362 372 387 400 401 396 384 374 367 357 346 341 448 399 364 350 344 342
380 381 382 381 382 384 385 385 385 383 381 378 375 377 380 380 381 378 372 364 361 359 357 354 351 350 352 357 358 355 352 355 366 366 371 389 395 392 164 374 366 360 354 349 346 396 448 434 406 367 349 345 343 343

GFSWCAN_2pvu_pres_045.txt.gz
Presure
525 540 508 485 489 505 512 437 410 390 393 298 292 264 264 183 163 243 266 264 245 189 211 169 249 262 236 228 217 205 225 214 215 207 206 209 197 199 204 201 199 199 198 199 200 127 202 203 203 200 203 194 204 207
342 342 334 331 347 362 348 349 317 310 304 286 281 272 266 187 261 175 164 172 198 219 245 257 246 257 235 221 219 213 210 219 208 214 203 204 196 200 202 202 198 193 195 199 197 190 160 203 205 194 193 189 187 183
297 330 323 315 305 303 305 304 301 304 284 281 269 267 264 284 273 164 172 271 262 189 274 248 266 235 229 224 211 225 218 219 203 212 203 205 199 200 207 199 195 190 101 180 191 189 189 187 182 183 189 184 191 189
283 293 281 283 292 280 282 281 278 247 275 279 276 174 293 283 184 263 219 226 209 268 236 177 261 232 224 214 210 218 208 221 205 209 205 201 200 199 207 196 194 157 195 190 188 190 193 192 190 191 192 192 196 198
257 277 275 275 278 272 270 269 278 290 252 272 172 285 248 214 248 268 243 184 248 231 238 260 253 223 220 214 218 209 213 216 209 206 209 201 200 196 199 196 195 198 192 193 192 192 191 199 195 199 201 200 200 201
272 266 257 263 254 275 260 260 272 266 263 240 241 259 253 257 260 248 197 248 248 240 265 255 242 222 213 218 211 211 214 219 210 201 213 203 197 194 196 197 197 196 195 195 194 196 197 198 202 200 203 190 205 192
262 269 260 264 270 270 274 266 271 245 259 251 203 254 259 235 251 231 266 247 246 237 253 242 237 220 213 209 206 219 216 212 215 210 215 209 200 200 196 194 198 198 195 197 199 195 198 200 202 196 204 208 201 200
243 232 247 246 251 253 253 259 257 249 239 255 265 235 244 251 250 247 246 232 236 261 248 238 230 223 217 207 207 204 214 220 206 212 211 205 207 201 198 199 146 201 197 198 196 199 200 191 211 205 200 199 195 194
231 229 211 196 254 213 212 251 259 250 254 261 254 241 248 261 243 245 235 236 267 261 252 240 227 222 215 214 214 207 211 202 194 207 211 209 204 205 206 208 207 206 203 192 201 202 211 198 195 197 201 206 202 208
240 239 240 234 235 218 268 228 285 260 233 239 244 250 269 251 246 239 240 228 246 246 254 232 227 220 218 213 217 210 206 211 213 202 203 206 208 206 192 201 210 210 209 202 212 193 194 198 207 211 203 210 197 211
223 243 267 268 256 248 271 270 276 236 230 250 262 253 240 241 237 231 234 250 257 238 243 250 228 217 209 210 213 203 197 201 206 208 209 205 205 211 210 211 211 211 206 184 191 196 202 199 200 210 214 211 214 221
257 242 239 275 264 265 264 266 233 227 228 251 250 236 235 237 227 228 226 233 250 232 226 231 232 233 221 211 207 201 188 193 206 206 201 197 197 209 212 212 210 201 196 194 199 200 205 210 213 220 216 220 231 228
239 204 235 266 277 263 239 247 255 255 254 248 233 236 236 233 224 223 217 219 251 243 227 228 223 221 220 216 211 211 214 216 212 205 206 205 207 208 209 204 191 199 203 202 204 209 220 208 206 222 208 233 243 214
217 235 210 263 268 277 248 247 253 255 245 238 239 226 223 224 220 220 223 222 227 236 243 234 245 231 225 221 222 219 215 214 196 205 207 209 199 193 202 202 200 194 210 215 221 210 216 229 197 244 225 212 189 225
261 253 245 251 273 261 247 273 245 251 238 233 232 235 230 222 222 218 214 215 214 226 233 234 234 241 240 232 222 223 228 223 218 211 206 207 208 212 218 220 220 214 205 212 225 233 204 233 218 210 223 225 227 232
249 257 268 228 261 227 260 248 254 248 236 233 230 228 229 233 230 221 219 216 214 213 212 238 238 233 239 236 229 229 227 217 232 231 226 198 204 203 206 216 224 220 208 219 219 219 214 203 225 226 229 239 249 255
253 268 248 233 248 253 261 255 238 238 238 238 232 230 229 224 221 222 231 226 221 216 214 230 218 243 239 235 225 222 220 219 218 217 218 220 221 217 217 235 242 232 216 215 211 214 225 227 239 250 254 255 273 274
265 257 262 263 255 261 257 252 240 239 240 228 226 228 228 221 221 226 230 232 230 223 216 212 214 214 213 209 208 241 234 240 242 246 247 246 241 228 223 218 214 212 212 225 231 242 252 254 259 258 271 267 261 261
256 259 259 261 265 263 251 247 239 236 236 234 236 238 231 232 233 231 232 230 227 228 227 224 223 220 216 215 219 221 221 220 220 214 215 215 214 216 220 227 232 242 250 255 256 258 248 253 258 267 255 251 253 285
273 258 255 251 250 250 245 245 246 241 233 231 234 237 243 237 235 241 239 233 234 237 232 227 226 225 225 226 227 228 229 228 225 225 226 230 235 246 248 249 254 252 254 261 251 255 273 264 254 247 251 282 292 296
277 267 254 258 250 251 245 247 248 236 238 243 237 230 227 233 237 232 230 229 226 229 232 238 239 245 245 247 248 249 248 249 254 253 249 238 249 260 259 248 256 260 255 251 251 255 258 258 257 293 295 290 316 320
268 271 263 252 258 248 255 249 245 244 243 244 246 245 245 245 247 251 246 252 248 239 233 223 224 228 229 245 251 250 251 258 261 260 251 245 253 258 261 264 252 267 250 250 249 261 287 289 290 303 319 324 323 331
271 267 271 262 259 250 240 247 245 248 245 244 247 245 238 238 236 241 240 239 233 238 244 249 254 255 251 249 253 240 241 253 266 275 271 261 262 276 271 266 261 260 261 275 283 291 291 303 325 324 325 328 363 387
276 280 265 261 268 264 257 252 255 258 253 249 248 234 242 239 236 249 254 261 263 263 257 245 249 253 254 271 273 274 271 268 260 267 260 254 251 257 262 288 285 279 286 294 308 323 328 327 327 329 379 388 384 381
278 279 278 280 286 265 263 264 264 264 262 254 255 259 262 266 264 260 261 262 251 271 283 281 274 273 265 268 266 280 264 254 251 252 260 293 293 286 278 290 294 301 319 331 329 327 329 337 391 388 384 383 373 373
270 270 271 278 278 277 278 282 284 285 283 279 279 281 281 282 282 280 274 272 275 276 273 268 278 260 253 255 255 257 261 267 284 285 283 290 297 299 307 316 329 330 330 330 353 387 387 385 381 375 370 364 374 374
283 291 292 284 283 282 278 269 271 267 260 261 261 268 275 260 281 267 260 262 268 270 260 252 249 249 251 264 273 281 286 288 292 298 302 311 326 332 333 334 371 386 387 386 384 381 374 368 368 373 370 366 363 368
276 275 267 254 274 285 286 276 271 266 269 256 257 262 277 263 260 258 277 281 284 289 299 304 303 301 300 299 297 298 308 338 342 338 339 384 394 397 391 386 385 381 374 370 369 369 369 368 362 362 360 382 413 410
308 297 286 281 281 283 282 283 286 285 287 282 281 278 279 274 278 276 285 314 323 320 313 354 344 347 367 390 357 361 409 397 397 393 389 385 380 374 372 370 368 368 367 369 365 357 358 358 370 395 406 400 386 374
346 334 328 329 328 331 331 333 346 347 342 340 339 349 356 350 344 367 366 371 401 400 402 399 397 394 391 389 385 384 381 379 375 372 369 368 366 367 367 366 364 360 358 360 358 366 383 398 396 386 371 362 355 348
321 317 316 302 323 337 345 326 353 342 341 341 368 386 382 401 402 396 396 393 391 390 385 382 379 376 374 371 370 370 370 373 375 372 367 361 358 356 360 361 361 365 372 380 393 390 381 368 358 352 349 349 421 449
400 397 398 398 399 398 396 396 394 392 393 391 391 391 391 389 385 382 381 382 385 388 389 387 382 374 367 364 362 360 356 352 355 364 363 359 358 370 376 375 382 386 376 367 359 354 351 353 443 444 391 373 363 355
385 387 389 390 389 383 375 375 377 376 377 376 376 377 379 381 377 374 372 368 363 360 359 362 365 362 358 364 367 363 356 355 361 372 372 374 381 375 366 358 357 373 440 423 407 394 382 372 363 356 350 349 351 353